| time (UTC) | temp F | wind direction | speed MPH | gust MPH | rain 1hr in | rain 24hr in | rain mn in | humidity % | barometer mb |
| 20260507020112 | 62 | 132 | 3.0 | 5.0 | 0.00 | 0.00 | 0.00 | 24 | 1007.7 |
| 20260507014603 | 63 | 127 | 3.0 | 5.0 | 0.00 | 0.00 | 0.00 | 24 | 1007.8 |
| 20260507013103 | 65 | 113 | 3.0 | 4.0 | 0.00 | 0.00 | 0.00 | 24 | 1008.0 |
| 20260507011609 | 67 | 101 | 3.0 | 7.0 | 0.00 | 0.00 | 0.00 | 23 | 1008.1 |
| 20260507010517 | 68 | 86 | 3.0 | 7.0 | 0.00 | 0.00 | 0.00 | 21 | 1008.2 |
| 20260507004607 | 70 | 96 | 6.0 | 11.0 | 0.00 | 0.00 | 0.00 | 20 | 1008.1 |
| 20260507003047 | 71 | 63 | 5.0 | 8.0 | 0.00 | 0.00 | 0.00 | 20 | 1008.0 |
| 20260507001547 | 69 | 5 | 2.0 | 5.0 | 0.00 | 0.00 | 0.00 | 20 | 1008.3 |
| 20260507000038 | 68 | 311 | 6.0 | 9.0 | 0.00 | 0.00 | 0.00 | 21 | 1008.4 |
| 20260506234556 | 69 | 236 | 5.0 | 9.0 | 0.00 | 0.00 | 0.00 | 20 | 1008.4 |
| 20260506233045 | 68 | 262 | 7.0 | 13.0 | 0.00 | 0.00 | 0.00 | 20 | 1008.6 |
| 20260506231550 | 69 | 303 | 7.0 | 14.0 | 0.00 | 0.00 | 0.00 | 20 | 1008.7 |
| 20260506230056 | 69 | 331 | 5.0 | 19.0 | 0.00 | 0.00 | 0.00 | 20 | 1009.0 |
| 20260506224552 | 69 | 18 | 14.0 | 18.0 | 0.00 | 0.00 | 0.00 | 20 | 1009.1 |
| 20260506223057 | 69 | 351 | 9.0 | 17.0 | 0.00 | 0.00 | 0.00 | 20 | 1009.6 |
| 20260506221549 | 68 | 15 | 7.0 | 19.0 | 0.00 | 0.00 | 0.00 | 20 | 1009.8 |
| 20260506220104 | 68 | 299 | 11.0 | 17.0 | 0.00 | 0.00 | 0.00 | 19 | 1009.9 |
| 20260506214813 | 66 | 351 | 2.0 | 13.0 | 0.00 | 0.00 | 0.00 | 21 | 1010.2 |
| 20260506213127 | 66 | 13 | 9.0 | 14.0 | 0.00 | 0.00 | 0.00 | 21 | 1010.4 |
| 20260506211602 | 67 | 349 | 12.0 | 17.0 | 0.00 | 0.00 | 0.00 | 20 | 1010.6 |
| 20260506210047 | 65 | 327 | 8.0 | 16.0 | 0.00 | 0.00 | 0.00 | 22 | 1010.9 |
| 20260506204555 | 65 | 294 | 7.0 | 20.0 | 0.00 | 0.00 | 0.00 | 22 | 1011.1 |
| 20260506203311 | 64 | 319 | 8.0 | 16.0 | 0.00 | 0.00 | 0.00 | 22 | 1011.5 |
| 20260506201610 | 63 | 267 | 13.0 | 17.0 | 0.00 | 0.00 | 0.00 | 22 | 1011.8 |
| 20260506200116 | 61 | 279 | 5.0 | 18.0 | 0.00 | 0.00 | 0.00 | 22 | 1011.9 |
| 20260506194628 | 60 | 269 | 6.0 | 13.0 | 0.00 | 0.00 | 0.00 | 22 | 1012.1 |
| 20260506193111 | 60 | 282 | 12.0 | 17.0 | 0.00 | 0.00 | 0.00 | 22 | 1012.4 |
| 20260506191612 | 59 | 249 | 9.0 | 16.0 | 0.00 | 0.00 | 0.00 | 22 | 1012.7 |
| 20260506190312 | 58 | 269 | 11.0 | 18.0 | 0.00 | 0.00 | 0.00 | 21 | 1013.0 |
| 20260506184609 | 57 | 232 | 6.0 | 19.0 | 0.00 | 0.00 | 0.00 | 21 | 1013.3 |
| 20260506183105 | 57 | 257 | 4.0 | 19.0 | 0.00 | 0.00 | 0.00 | 22 | 1013.6 |
| 20260506181551 | 56 | 223 | 8.0 | 14.0 | 0.00 | 0.00 | 0.00 | 25 | 1013.5 |
| 20260506180053 | 55 | 267 | 8.0 | 15.0 | 0.00 | 0.00 | 0.00 | 26 | 1013.9 |
| 20260506174601 | 54 | 229 | 8.0 | 15.0 | 0.00 | 0.00 | 0.00 | 26 | 1014.3 |
| 20260506173054 | 53 | 240 | 3.0 | 15.0 | 0.00 | 0.00 | 0.00 | 23 | 1014.6 |
| 20260506171553 | 52 | 264 | 2.0 | 12.0 | 0.00 | 0.00 | 0.00 | 26 | 1015.2 |
| 20260506170109 | 51 | 271 | 2.0 | 14.0 | 0.00 | 0.00 | 0.00 | 29 | 1015.3 |
| 20260506164551 | 50 | 216 | 8.0 | 15.0 | 0.00 | 0.00 | 0.00 | 32 | 1015.4 |
| 20260506163102 | 49 | 216 | 8.0 | 13.0 | 0.00 | 0.00 | 0.00 | 38 | 1015.5 |
| 20260506161550 | 46 | 250 | 5.0 | 13.0 | 0.00 | 0.00 | 0.00 | 43 | 1015.9 |
| 20260506160052 | 45 | 232 | 9.0 | 14.0 | 0.00 | 0.00 | 0.00 | 45 | 1016.1 |
| 20260506154552 | 44 | 262 | 6.0 | 11.0 | 0.00 | 0.00 | 0.00 | 48 | 1016.5 |
| 20260506153051 | 42 | 215 | 6.0 | 11.0 | 0.00 | 0.00 | 0.00 | 50 | 1016.6 |
| 20260506151549 | 41 | 235 | 5.0 | 13.0 | 0.00 | 0.00 | 0.00 | 51 | 1016.8 |
| 20260506150100 | 40 | 236 | 6.0 | 11.0 | 0.00 | 0.00 | 0.00 | 51 | 1017.1 |
| 20260506144601 | 38 | 202 | 4.0 | 8.0 | 0.00 | 0.00 | 0.00 | 50 | 1017.1 |
| 20260506143100 | 36 | 248 | 6.0 | 10.0 | 0.00 | 0.00 | 0.00 | 52 | 1017.2 |
| 20260506141812 | 34 | 233 | 4.0 | 8.0 | 0.00 | 0.00 | 0.00 | 51 | 1017.3 |
| 20260506140324 | 33 | 231 | 5.0 | 8.0 | 0.00 | 0.00 | 0.00 | 51 | 1017.7 |
| 20260506134556 | 30 | 221 | 2.0 | 4.0 | 0.00 | 0.00 | 0.00 | 54 | 1017.6 |
| 20260506133312 | 28 | 190 | 1.0 | 3.0 | 0.00 | 0.00 | 0.00 | 58 | 1017.6 |
| 20260506131551 | 26 | 190 | 0.0 | 1.0 | 0.00 | 0.00 | 0.00 | 62 | 1017.8 |
| 20260506130059 | 24 | 190 | 0.0 | 1.0 | 0.00 | 0.00 | 0.00 | 63 | 1018.2 |
| 20260506124540 | 22 | 190 | 0.0 | 0.0 | 0.00 | 0.00 | 0.00 | 63 | 1018.2 |
| 20260506123039 | 24 | 190 | 1.0 | 4.0 | 0.00 | 0.00 | 0.00 | 57 | 1018.1 |
| 20260506121549 | 28 | 42 | 0.0 | 0.0 | 0.00 | 0.00 | 0.00 | 57 | 1018.5 |
| 20260506120046 | 26 | 42 | 1.0 | 3.0 | 0.00 | 0.00 | 0.00 | 60 | 1018.4 |
| 20260506114539 | 27 | 42 | 1.0 | 2.0 | 0.00 | 0.00 | 0.00 | 55 | 1018.6 |
| 20260506113038 | 28 | 42 | 0.0 | 0.0 | 0.00 | 0.00 | 0.00 | 56 | 1018.6 |
| 20260506111555 | 28 | 42 | 0.0 | 0.0 | 0.00 | 0.00 | 0.00 | 55 | 1018.8 |
| 20260506110101 | 28 | 42 | 0.0 | 0.0 | 0.00 | 0.00 | 0.00 | 56 | 1018.9 |
| 20260506104550 | 27 | 42 | 0.0 | 0.0 | 0.00 | 0.00 | 0.00 | 57 | 1019.0 |
| 20260506103101 | 26 | 42 | 0.0 | 0.0 | 0.00 | 0.00 | 0.00 | 57 | 1019.3 |
| 20260506101959 | 25 | 42 | 0.0 | 3.0 | 0.00 | 0.00 | 0.00 | 59 | 1019.3 |
| 20260506100059 | 24 | 42 | 2.0 | 3.0 | 0.00 | 0.00 | 0.00 | 58 | 1019.5 |
| 20260506094547 | 25 | 54 | 0.0 | 0.0 | 0.00 | 0.00 | 0.00 | 59 | 1019.4 |
| 20260506093043 | 22 | 54 | 2.0 | 3.0 | 0.00 | 0.00 | 0.00 | 59 | 1019.7 |
| 20260506091545 | 22 | 54 | 1.0 | 3.0 | 0.00 | 0.00 | 0.00 | 60 | 1019.9 |
| 20260506090054 | 22 | 59 | 0.0 | 2.0 | 0.00 | 0.00 | 0.00 | 62 | 1020.2 |
| 20260506084600 | 20 | 61 | 0.0 | 2.0 | 0.00 | 0.00 | 0.00 | 63 | 1020.3 |
| 20260506083311 | 20 | 62 | 2.0 | 3.0 | 0.00 | 0.00 | 0.00 | 62 | 1020.4 |
| 20260506081540 | 20 | 62 | 3.0 | 5.0 | 0.00 | 0.00 | 0.00 | 63 | 1020.4 |
| 20260506080314 | 19 | 71 | 1.0 | 3.0 | 0.00 | 0.00 | 0.00 | 62 | 1020.4 |
| 20260506073322 | 20 | 69 | 0.0 | 0.0 | 0.00 | 0.00 | 0.00 | 61 | 1020.7 |
| 20260506071812 | 21 | 67 | 2.0 | 4.0 | 0.00 | 0.00 | 0.00 | 60 | 1020.5 |
| 20260506070317 | 21 | 49 | 0.0 | 4.0 | 0.00 | 0.00 | 0.00 | 60 | 1020.7 |
| 20260506061556 | 23 | 58 | 4.0 | 5.0 | 0.00 | 0.00 | 0.00 | 57 | 1020.6 |
| 20260506050124 | 26 | 48 | 4.0 | 5.0 | 0.00 | 0.00 | 0.00 | 52 | 1020.6 |
| 20260506044823 | 25 | 42 | 3.0 | 4.0 | 0.00 | 0.00 | 0.00 | 52 | 1020.7 |
| 20260506043117 | 26 | 49 | 3.0 | 4.0 | 0.00 | 0.00 | 0.00 | 52 | 1020.8 |
| 20260506041608 | 27 | 66 | 3.0 | 4.0 | 0.00 | 0.00 | 0.00 | 51 | 1020.7 |
| 20260506040109 | 28 | 66 | 2.0 | 4.0 | 0.00 | 0.00 | 0.00 | 50 | 1020.9 |
| 20260506034606 | 30 | 66 | 2.0 | 4.0 | 0.00 | 0.00 | 0.00 | 46 | 1020.6 |
| 20260506033313 | 31 | 62 | 4.0 | 5.0 | 0.00 | 0.00 | 0.00 | 45 | 1020.4 |
| 20260506031554 | 35 | 54 | 4.0 | 5.0 | 0.00 | 0.00 | 0.00 | 42 | 1020.3 |
| 20260506030106 | 37 | 49 | 3.0 | 5.0 | 0.00 | 0.00 | 0.00 | 40 | 1020.2 |
| 20260506024559 | 40 | 45 | 4.0 | 7.0 | 0.00 | 0.00 | 0.00 | 37 | 1020.0 |
| 20260506023053 | 42 | 37 | 5.0 | 10.0 | 0.00 | 0.00 | 0.00 | 35 | 1019.8 |
| 20260506021607 | 44 | 36 | 7.0 | 14.0 | 0.00 | 0.00 | 0.00 | 34 | 1019.6 |